This is the latest recevied weather packets stored in our database for station/object K0SDS. If no packets are shown the sender has not sent any weather packets the latest 10 day(s).
| Time | Temp. | Humidity | Pressure | Rain* | Wind** | Luminosity | Snow |
|---|---|---|---|---|---|---|---|
| 1777299417 | 15.56° C | 99% | 1000.6 hPa | 0 mm | - | 168 W/m² | - |
| 1777299115 | 16.11° C | 99% | 1000.6 hPa | 0 mm | - | 343 W/m² | - |
| 1777298812 | 15.56° C | 99% | 1000.4 hPa | 0 mm | - | 218 W/m² | - |
| 1777298507 | 16.11° C | 99% | 1000.8 hPa | 1.27 mm | - | 253 W/m² | - |
| 1777298204 | 15.56° C | 99% | 1000.6 hPa | 1.27 mm | - | 214 W/m² | - |
| 1777297899 | 15.56° C | 99% | 1000.7 hPa | 1.27 mm | - | 163 W/m² | - |
| 1777297596 | 15.56° C | 99% | 1000.3 hPa | 0 mm | - | 114 W/m² | - |
| 1777297293 | 15.56° C | 99% | 1000.6 hPa | 0 mm | - | 225 W/m² | - |
| 1777296991 | 15.56° C | 99% | 1000.5 hPa | 0 mm | - | 178 W/m² | - |
| 1777296687 | 15.56° C | 99% | 1000.4 hPa | 0 mm | - | 143 W/m² | - |
| 1777296373 | 15.56° C | 99% | 1000.8 hPa | 0 mm | - | 145 W/m² | - |
| 1777296068 | 15.56° C | 99% | 1000.6 hPa | 0 mm | - | 119 W/m² | - |
| 1777295766 | 15.56° C | 99% | 1000.4 hPa | 0 mm | - | 111 W/m² | - |
| 1777295464 | 15° C | 99% | 1001 hPa | 0 mm | - | 101 W/m² | - |
| 1777295161 | 15° C | 99% | 1000.5 hPa | 0 mm | - | 85 W/m² | - |
| 1777294858 | 15° C | 99% | 1000.6 hPa | 0 mm | - | 53 W/m² | - |
| 1777294552 | 15° C | 99% | 1000.7 hPa | 0 mm | - | 33 W/m² | - |
| 1777294249 | 15° C | 99% | 1000.4 hPa | 0 mm | - | 32 W/m² | - |
| 1777293946 | 15° C | 99% | 1000.7 hPa | 0 mm | - | 29 W/m² | - |
| 1777293642 | 15° C | 99% | 1001 hPa | 0 mm | - | 26 W/m² | - |
* Rain latest hour (hover to see other rain measurements)
** Current wind speed in m/s (hover to see current wind gust speed)